Simultaneous Nadir Overpasses (SNOs) Predictions

Prediction of SNOs between NOAA-19 and TERRA Satellite Orbit:

Table of predicted SNOs for the next 14.0 days since TLE Epoch: 8/16/2016
Index Date (NOAA-19) Time (NOAA-19) Lat,Lon (NOAA-19) SZA (NOAA-19 ) Date (TERRA) Time (TERRA) Lat,Lon (TERRA) SZA (TERRA ) Distance(km) Time Diff (sec)
1 08/16/2016 08:47:00 -74.13,-124.14 119.39 08/16/2016 08:48:01 -74.11,-124.11 119.40 2.60 61
2 08/16/2016 09:37:57 74.02, 43.42 60.52 08/16/2016 09:37:28 74.03, 43.35 60.53 2.67 29
3 08/18/2016 14:20:59 74.11, -27.52 61.32 08/18/2016 14:21:42 74.13, -27.50 61.34 1.87 43
4 08/18/2016 15:12:00 -74.01, 139.98 118.77 08/18/2016 15:11:12 -74.01, 139.86 118.78 3.64 48
5 08/20/2016 19:55:02 -74.08, 69.09 117.97 08/20/2016 19:55:26 -74.10, 69.00 117.96 3.37 24
6 08/20/2016 20:45:59 74.01,-123.48 61.99 08/20/2016 20:44:53 74.01,-123.56 61.96 2.41 66
7 08/23/2016 01:29:01 74.11, 165.56 62.82 08/23/2016 01:29:07 74.09, 165.57 62.80 2.53 6
8 08/23/2016 02:19:53 -73.53, -25.73 117.69 08/23/2016 02:18:45 -73.56, -27.98 117.77 70.67 68
9 08/25/2016 06:12:07 74.41, 94.07 63.85 08/25/2016 06:13:18 74.32, 95.04 63.81 30.56 71
10 08/25/2016 07:03:05 -74.09, -97.86 116.43 08/25/2016 07:02:50 -74.10, -97.84 116.42 0.96 15
11 08/27/2016 11:46:07 -74.18,-168.79 115.58 08/27/2016 11:47:04 -74.17,-168.74 115.58 1.70 57
12 08/27/2016 12:37:02 74.08, -1.27 64.35 08/27/2016 12:36:31 74.08, -1.31 64.34 1.27 31
13 08/29/2016 17:20:03 74.14, -72.12
